[[{"header":{"parameterUnit":"m.s-1","parameterCategory":1,"la1":30.2991,"la2":30.254,"lo1":-89.0895,"lo2":-89.0444,"dy":0.0017,"dx":0.0017,"nx":28,"ny":28,"refTime":"2026-01-03T03:00:00:Z","depth":0,"parameterNumber":2,"parameterNumberName":"U-component_of_WINDS"},"data":[0,0,0,0,0,0,0,0,0,0,0,0,0,0,0,0,0,0,0,0,0,0,0,0,0,0,0,0,0,0,0,0,0,0,0,0,0,0,0,0,0,0,0,0,0,0,0,0,0,0,0,0,0,0,0,0,0,0,1.7947,1.7947,0,1.793,1.793,1.793,1.7877,1.7876,1.7875,1.7874,1.7858,1.7858,1.7859,0,0,0,0,0,0,0,0,0,0,0,0,0,1.7935,1.7936,1.7947,1.7947,1.7946,1.793,1.793,1.793,1.7877,1.7876,1.7874,1.7873,1.7858,1.7858,1.7859,0,0,0,0,0,0,0,0,0,0,0,0,0,1.7932,1.7936,1.7947,1.7918,1.7916,1.793,1.793,1.793,1.7878,1.7876,1.7874,1.7872,1.7857,1.7858,1.7859,1.7901,0,0,1.7862,1.7863,0,0,0,0,0,0,0,0,1.7932,1.7932,1.7923,1.792,1.7917,1.7904,1.792,1.792,1.7878,1.7892,1.7874,1.7872,1.7875,1.7874,1.7875,1.79,1.7899,1.7862,1.7863,1.7863,1.7864,0,0,0,0,0,0,0,1.7932,1.7933,1.794,1.7923,1.7919,1.7907,1.7905,1.792,1.7893,1.7891,1.7887,1.7886,1.7873,1.7874,1.7874,1.7899,1.7862,1.7863,1.7864,1.7864,1.7959,1.796,0,0,0,0,0,0,1.7936,1.7933,1.7941,1.794,1.792,1.7909,1.7906,1.791,1.7893,1.7889,1.7887,1.7883,1.7873,1.7873,1.7873,1.7921,1.7863,1.7864,1.7865,1.7957,1.7959,1.7961,0,0,0,0,0,0,1.7936,1.7938,1.7941,1.7935,1.7935,1.7911,1.7916,1.7911,1.7912,1.789,1.7886,1.7893,1.7872,1.7872,1.7894,1.792,1.7865,1.7866,1.7954,1.7957,1.796,1.8018,0,0,0,0,0,0,1.7936,1.7938,1.7953,1.7936,1.7935,1.7962,1.7917,1.7912,1.7913,1.7908,1.7895,1.7891,1.787,1.7893,1.7895,1.792,1.7866,1.7952,1.7956,1.7959,1.8013,1.8022,1.803,0,0,0,0,0,1.7936,1.797,1.7954,1.7955,1.7954,1.7964,1.7964,1.7939,1.7916,1.7931,1.7917,1.7891,1.7917,1.7896,1.7898,1.7924,1.795,1.7955,1.7959,1.801,1.802,1.8029,0,0,0,0,0,0,1.799,1.7967,1.7949,1.7978,1.7973,1.7955,1.7973,1.7951,1.7953,1.7948,1.7918,1.7916,1.7943,1.7935,1.7912,1.7964,1.7929,1.7934,1.7967,1.7977,1.7985,1.7987,1.7867,0,0,0,0,0,1.8005,1.8015,1.7994,1.8022,1.8021,1.7998,1.8001,1.7983,1.7977,1.7975,1.7963,1.7959,1.7966,1.7971,1.7976,1.8012,1.8009,1.8031,1.8039,1.8046,1.8051,1.807,1.808,1.7975,1.7975,1.7975,0,0,1.8036,1.8025,1.8033,1.8033,1.8027,1.8039,1.7996,1.801,1.8019,1.7977,1.7998,1.7989,1.7982,1.8012,1.8024,1.8007,1.8079,1.8051,1.8057,1.8058,1.8076,1.8086,1.8094,1.7978,1.7977,1.7977,0,0,1.81,1.8092,1.8115,1.811,1.8102,1.8087,1.8092,1.8078,1.807,1.8091,1.806,1.807,1.8083,1.808,1.808,1.8144,1.812,1.8147,1.8189,1.8209,1.8217,1.8224,1.8248,1.8257,1.8151,1.8152,1.8152,0,1.814,1.8156,1.8129,1.8146,1.8147,1.811,1.8133,1.813,1.8124,1.8126,1.8107,1.8123,1.8115,1.8144,1.816,1.8161,1.8168,1.8148,1.8218,1.8225,1.8231,1.8253,1.8262,1.8155,1.8154,1.8154,1.8154,0,1.8207,1.8218,1.8238,1.8233,1.8237,1.8256,1.8233,1.824,1.8222,1.8209,1.8231,1.8222,1.8225,1.823,1.8213,1.8258,1.8247,1.8223,1.8188,1.8245,1.8265,1.8274,1.816,1.8158,1.8157,1.8157,0,0,1.8302,1.8284,1.8292,1.829,1.8279,1.8288,1.8306,1.8309,1.8316,1.8314,1.833,1.8342,1.832,1.8321,1.8302,1.832,1.8372,1.8294,1.8293,1.8309,1.8422,1.8441,1.8451,1.8357,1.8358,1.8359,1.8423,0,1.8363,1.8393,1.8371,1.8405,1.8417,1.8382,1.8399,1.8395,1.8383,1.8392,1.838,1.8389,1.8359,1.8359,1.8375,1.8363,1.8395,1.8358,1.8372,1.8373,1.8375,1.8461,1.848,1.8541,1.8431,1.8432,1.8433,0,1.8438,1.8439,1.8475,1.8463,1.8467,1.8482,1.8484,1.8492,1.8487,1.8478,1.8479,1.8457,1.8475,1.8441,1.8467,1.8442,1.8447,1.8442,1.8444,1.8444,1.8406,1.8465,1.8559,1.8569,1.8445,1.8444,1.8443,0,1.8505,1.8516,1.8539,1.8539,1.8525,1.8537,1.8531,1.8524,1.8528,1.853,1.8533,1.8537,1.8539,1.8544,1.8524,1.85,1.8553,1.8516,1.8546,1.8547,1.8558,1.8558,1.8656,1.8561,1.8561,1.8561,1.8561,0,1.8576,1.8599,1.8569,1.8584,1.861,1.8584,1.861,1.8601,1.8596,1.8609,1.8579,1.8592,1.8565,1.8575,1.856,1.8584,1.8585,1.8579,1.8575,1.8582,1.8583,1.8584,1.858,1.8563,1.8563,1.8562,1.8562,0,1.8655,1.8636,1.8659,1.8645,1.8642,1.8661,1.8649,1.8662,1.865,1.8666,1.8669,1.8649,1.866,1.864,1.8649,1.8638,1.8673,1.8662,1.8674,1.8671,1.8702,1.87,1.8805,1.8818,1.8715,1.8716,1.8716,0,1.8701,1.8719,1.8706,1.8713,1.8709,1.872,1.8724,1.8699,1.8705,1.8701,1.8715,1.8723,1.8729,1.8748,1.8735,1.8741,1.873,1.8767,1.8731,1.8738,1.8732,1.8731,1.8733,1.8774,1.8775,1.8776,1.8777,0,1.8786,1.8776,1.8782,1.8786,1.8792,1.8794,1.8794,1.8801,1.8775,1.8783,1.8793,1.8798,1.8806,1.8815,1.8819,1.8814,1.8792,1.8788,1.8796,1.8803,1.881,1.8808,1.8695,1.8786,1.8785,1.8785,1.8784,1.8784,1.885,1.8865,1.8859,1.8867,1.8865,1.8866,1.8878,1.8867,1.8875,1.888,1.8865,1.888,1.8876,1.8878,1.8876,1.8888,1.8872,1.8882,1.8885,1.8888,1.8893,1.8808,1.8888,1.8888,1.8888,1.8887,1.8887,0,1.8934,1.8929,1.8937,1.8938,1.8945,1.8923,1.8922,1.893,1.8943,1.8941,1.8947,1.896,1.8968,1.8957,1.8964,1.8975,1.8965,1.8978,1.8977,1.8977,1.8907,1.89,1.8986,1.8986,1.8986,1.8986,1.8986,1.8986,1.8978,1.9002,1.8991,1.9014,1.9008,1.9022,1.9023,1.9024,1.9022,1.9038,1.9045,1.9037,1.9032,1.9038,1.9046,1.9042,1.9047,1.9063,1.9056,1.8991,1.8981,1.8972,1.8966,1.9064,1.9064,1.9125,1.9126,1.9126]},{"header":{"parameterUnit":"m.s-1","parameterCategory":1,"la1":30.2991,"la2":30.254,"lo1":-89.0895,"lo2":-89.0444,"dy":0.0017,"dx":0.0017,"nx":28,"ny":28,"refTime":"2026-01-03T03:00:00:Z","depth":0,"parameterNumber":3,"parameterNumberName":"V-component_of_WINDS"},"data":[0,0,0,0,0,0,0,0,0,0,0,0,0,0,0,0,0,0,0,0,0,0,0,0,0,0,0,0,0,0,0,0,0,0,0,0,0,0,0,0,0,0,0,0,0,0,0,0,0,0,0,0,0,0,0,0,0,0,-0.0207,-0.0205,0,-0.0044,-0.0043,-0.0041,0.002,0.0019,0.0019,0.0018,0.0187,0.0191,0.0196,0,0,0,0,0,0,0,0,0,0,0,0,0,-0.0466,-0.0462,-0.0207,-0.0205,-0.0203,-0.0045,-0.0042,-0.004,0.002,0.0019,0.0019,0.0018,0.0185,0.0191,0.0197,0,0,0,0,0,0,0,0,0,0,0,0,0,-0.0334,-0.046,-0.0208,-0.0154,-0.0148,-0.0045,-0.0042,-0.004,0.002,0.0019,0.0018,0.0018,0.0183,0.019,0.0198,0.026,0,0,0.0221,0.0224,0,0,0,0,0,0,0,0,-0.0341,-0.0324,-0.0164,-0.0158,-0.015,-0.0034,-0.0072,0.0061,0.002,-0.0044,0.0018,0.0017,0.0114,0.0127,0.016,0.0268,0.0275,0.0221,0.0226,0.0229,0.0231,0,0,0,0,0,0,0,-0.035,-0.0331,-0.0143,-0.0162,-0.0153,-0.0138,-0.012,-0.0047,0.0038,-0.0038,-0.0033,-0.0015,0.0118,0.0152,0.0164,0.0277,0.0221,0.0228,0.0232,0.0235,0.0441,0.0442,0,0,0,0,0,0,-0.0369,-0.0339,-0.0148,-0.0138,-0.025,-0.0133,-0.0113,-0.007,0.0037,0.0053,-0.0015,-0.0013,0.014,0.0155,0.017,0.0248,0.0229,0.0236,0.024,0.044,0.0441,0.0442,0,0,0,0,0,0,-0.0375,-0.0352,-0.0154,-0.0237,-0.0211,-0.0128,-0.008,-0.0067,-0.0032,0.0055,0.007,0.0005,0.014,0.016,0.0236,0.0255,0.0239,0.0246,0.0439,0.044,0.0442,0.0405,0,0,0,0,0,0,-0.0382,-0.0355,-0.033,-0.0237,-0.0207,-0.0091,-0.0079,-0.0063,-0.0019,-0.0016,0.0078,0.0092,0.0141,0.0225,0.0244,0.0265,0.0252,0.0438,0.044,0.0441,0.0405,0.0405,0.0405,0,0,0,0,0,-0.0392,-0.0346,-0.0329,-0.0306,-0.0174,-0.009,-0.0073,-0.0018,-0.0018,0.0007,0.0062,0.0089,0.0249,0.0232,0.0254,0.0278,0.0437,0.0439,0.0441,0.0405,0.0405,0.0405,0,0,0,0,0,0,-0.0437,-0.0332,-0.0313,-0.0235,-0.0172,-0.008,-0.0046,-0.0019,0.0046,0.0047,0.0112,0.0132,0.0203,0.0248,0.0227,0.0342,0.0345,0.0351,0.031,0.0311,0.0311,0.0299,0.0258,0,0,0,0,0,-0.0438,-0.0379,-0.0291,-0.0231,-0.0201,-0.0129,-0.009,-0.0055,0.0014,0.0041,0.0102,0.0168,0.0232,0.0274,0.0339,0.0411,0.0432,0.0438,0.0438,0.0438,0.0443,0.0483,0.0486,0.045,0.045,0.045,0,0,-0.0439,-0.0375,-0.0341,-0.0239,-0.0185,-0.0126,-0.0107,-0.0044,0.0001,0.0051,0.0126,0.0173,0.025,0.0324,0.036,0.0364,0.0457,0.0441,0.044,0.0446,0.0485,0.0489,0.0492,0.0451,0.0451,0.0451,0,0,-0.0411,-0.0356,-0.0302,-0.025,-0.017,-0.0124,-0.0111,-0.0024,0.0009,0.0085,0.0123,0.0177,0.0288,0.0341,0.0382,0.0425,0.0452,0.0445,0.0446,0.0483,0.0486,0.0489,0.0503,0.0508,0.0449,0.0449,0.0449,0,-0.0422,-0.0332,-0.0277,-0.0217,-0.0174,-0.0127,-0.0072,-0.0024,0.0073,0.0101,0.0104,0.0242,0.0297,0.0383,0.0393,0.0426,0.0442,0.0435,0.0481,0.0485,0.0488,0.0503,0.0508,0.0448,0.0448,0.0448,0.0448,0,-0.035,-0.0288,-0.0254,-0.0164,-0.0116,-0.0059,0.0004,0.0045,0.0076,0.0121,0.0197,0.0265,0.0343,0.0366,0.0398,0.0455,0.0455,0.0469,0.0473,0.0489,0.0504,0.051,0.0446,0.0446,0.0447,0.0447,0,0,-0.0343,-0.0227,-0.0215,-0.0174,-0.0085,-0.0036,0.0022,0.0097,0.013,0.0194,0.0244,0.0335,0.0347,0.0394,0.0431,0.0464,0.0492,0.0474,0.0476,0.0474,0.0558,0.0548,0.0553,0.051,0.0511,0.0512,0.0552,0,-0.0304,-0.0198,-0.0149,-0.0065,-0.0008,0.0035,0.0085,0.0145,0.0188,0.0243,0.0291,0.0354,0.0366,0.0394,0.0429,0.0481,0.051,0.0479,0.0557,0.0559,0.0536,0.0561,0.0551,0.0585,0.0558,0.0559,0.056,0,-0.0243,-0.0182,-0.0093,-0.0014,0.0012,0.0057,0.0128,0.018,0.0247,0.0277,0.0326,0.0362,0.0424,0.0423,0.0508,0.0486,0.052,0.055,0.0553,0.0563,0.056,0.0571,0.0598,0.0603,0.0569,0.0569,0.0568,0,-0.0249,-0.0143,-0.0077,-0.0044,0.0051,0.0081,0.0122,0.0188,0.0229,0.0291,0.0318,0.0387,0.0424,0.0476,0.0529,0.0523,0.0609,0.0612,0.0634,0.0633,0.0651,0.0649,0.0683,0.0673,0.0673,0.0672,0.0672,0,-0.021,-0.0158,-0.0079,-0.0038,0.0021,0.0077,0.0134,0.0178,0.0237,0.0286,0.0328,0.0373,0.044,0.0493,0.0535,0.0598,0.0615,0.064,0.0651,0.0637,0.0633,0.066,0.0659,0.0674,0.0674,0.0673,0.0673,0,-0.0205,-0.015,-0.0076,0.0006,0.0028,0.0068,0.0139,0.0179,0.0223,0.0285,0.0303,0.0373,0.0438,0.0495,0.0582,0.0609,0.0674,0.0687,0.0651,0.0656,0.0675,0.0672,0.0727,0.0737,0.0719,0.072,0.072,0,-0.0184,-0.0143,-0.0058,-0.0023,0.0017,0.0074,0.0115,0.0171,0.0212,0.029,0.0321,0.0388,0.0446,0.0547,0.0606,0.0671,0.0686,0.07,0.0696,0.068,0.0685,0.0682,0.0686,0.0701,0.07,0.07,0.07,0,-0.0153,-0.0129,-0.0072,-0.0006,0.0041,0.0096,0.0153,0.0179,0.0245,0.0289,0.0355,0.0399,0.0486,0.0552,0.0623,0.0665,0.0694,0.0701,0.0709,0.0696,0.0673,0.0685,0.065,0.07,0.07,0.07,0.07,0.07,-0.014,-0.0102,-0.0037,0.0024,0.0072,0.0122,0.0164,0.0212,0.0268,0.0342,0.0371,0.0438,0.0502,0.0601,0.0642,0.0695,0.07,0.0713,0.0716,0.0718,0.0715,0.0663,0.0709,0.0709,0.0709,0.0709,0.0709,0,-0.0107,-0.0064,-0.0008,0.0068,0.0116,0.0136,0.0199,0.0237,0.0296,0.0353,0.0407,0.0482,0.0545,0.0607,0.0674,0.0704,0.0718,0.072,0.0718,0.0727,0.0707,0.0693,0.0707,0.0707,0.0707,0.0707,0.0707,0.0707,-0.0084,-0.0021,0.001,0.0097,0.0141,0.0206,0.0239,0.0286,0.0331,0.0412,0.0465,0.0504,0.0563,0.0633,0.0692,0.0709,0.0731,0.0729,0.0748,0.0729,0.0729,0.0728,0.0715,0.0733,0.0733,0.0764,0.0764,0.0764]}]]